EW3758 Weather Reports


time (UTC)temp
C
wind
direction
speed
KPH
gust
KPH
rain 1hr
cm
rain 24hr
cm
rain mn
cm
humidity
%
barometer
mb
20260506190043 17 91 0.0 0.0 0.00 0.00 0.00 41 1018.0
20260506184540 17 61 0.0 0.0 0.00 0.00 0.00 49 1018.0
20260506183055 16 98 0.0 0.0 0.00 0.00 0.00 55 1018.1
20260506181538 16 103 0.0 0.0 0.00 0.00 0.00 59 1018.2
20260506180036 15 107 0.0 0.0 0.00 0.00 0.00 59 1018.2
20260506174534 15 150 0.0 0.0 0.00 0.00 0.00 59 1018.3
20260506173030 15 106 0.0 0.0 0.00 0.00 0.00 65 1018.3
20260506171533 14 94 0.0 0.0 0.00 0.00 0.00 66 1018.3
20260506170033 13 116 0.0 0.0 0.00 0.00 0.00 65 1018.5
20260506164529 13 165 0.0 0.0 0.00 0.00 0.00 70 1018.8
20260506163029 12 228 0.0 0.0 0.00 0.00 0.00 72 1019.0
20260506161530 12 103 0.0 0.0 0.00 0.00 0.00 72 1019.2
20260506160131 11 238 0.0 0.0 0.00 0.00 0.00 74 1019.3
20260506154532 10 310 0.0 0.0 0.00 0.00 0.00 81 1019.4
20260506153028 8 310 0.0 0.0 0.00 0.00 0.00 88 1019.5
20260506151532 7 292 0.0 0.0 0.00 0.00 0.00 90 1019.5
20260506150028 5 310 0.0 0.0 0.00 0.00 0.00 93 1019.5
20260506144526 3 310 0.0 0.0 0.00 0.00 0.00 96 1019.5
20260506143031 1 310 0.0 0.0 0.00 0.00 0.00 96 1019.2
20260506141523 1 310 0.0 0.0 0.00 0.00 0.00 96 1019.0
20260506140019 0 192 0.0 0.0 0.00 0.00 0.00 96 1018.6
20260506134516 -1 186 0.0 0.0 0.00 0.00 0.00 95 1018.2
20260506133014 -17 0.0 0.0 0.00 0.00 0.00 1017.7
20260506131512 -17 0.0 0.0 0.00 0.00 0.00 1017.5
20260506130012 -17 0.0 0.0 0.00 0.00 0.00 1017.3
20260506124503 -17 0.0 0.0 0.00 0.00 0.00 1017.0
20260506123100 -17 0.0 0.0 0.00 0.00 0.00 1016.8
20260506121558 -17 0.0 0.0 0.00 0.00 0.00 1016.7
20260506120052 -17 0.0 0.0 0.00 0.00 0.00 1016.7
20260506114551 -17 0.0 0.0 0.00 0.00 0.00 1016.5
20260506113044 -17 0.0 0.0 0.00 0.00 0.00 1016.2
20260506111542 -17 0.0 0.0 0.00 0.00 0.00 1016.1
20260506110037 -17 0.0 0.0 0.00 0.00 0.00 1015.9
20260506104535 -17 0.0 0.0 0.00 0.00 0.00 1015.8
20260506103030 -17 0.0 0.0 0.00 0.00 0.00 1015.6
20260506101527 -17 0.0 0.0 0.00 0.00 0.00 1015.4
20260506100022 -17 0.0 0.0 0.00 0.00 0.00 1015.4
20260506094520 -17 0.0 0.0 0.00 0.00 0.00 1015.2
20260506093013 -17 0.0 0.0 0.00 0.00 0.00 1015.1
20260506091515 -17 0.0 0.0 0.00 0.00 0.00 1015.0
20260506090010 -17 0.0 0.0 0.00 0.00 0.00 1014.9
20260506084502 -17 0.0 0.0 0.00 0.00 0.00 1014.8
20260506083100 -17 0.0 0.0 0.00 0.00 0.00 1014.8
20260506081559 -17 0.0 0.0 0.00 0.00 0.00 1014.6
20260506073052 -17 0.0 0.0 0.00 0.00 0.00 1014.3
20260506071542 -17 0.0 0.0 0.00 0.00 0.00 1014.1
20260506061543 -17 0.0 0.0 0.00 0.00 0.00 1013.6
20260506044602 -17 0.0 0.0 0.00 0.00 0.00 1013.0
20260506043104 -17 308 0.0 0.0 0.00 0.00 0.00 1013.0
20260506041554 7 308 0.0 0.0 0.00 0.00 0.00 87 1012.7
20260506040101 7 307 0.0 0.0 0.00 0.00 0.00 86 1012.5
20260506034551 8 307 0.0 0.0 0.00 0.00 0.00 84 1012.6
20260506033048 8 307 0.0 0.0 0.00 0.00 0.00 82 1012.3
20260506031550 8 308 0.0 0.0 0.00 0.00 0.00 82 1012.0
20260506030045 10 308 0.0 0.0 0.00 0.00 0.00 79 1011.8
20260506024552 11 198 0.0 0.0 0.00 0.00 0.00 76 1011.5
20260506023041 11 203 0.0 0.0 0.00 0.00 0.00 73 1011.5
20260506021556 12 306 0.0 0.0 0.00 0.00 0.00 68 1011.4
20260506020040 14 311 0.0 0.0 0.00 0.00 0.00 57 1011.2
20260506014540 14 310 0.0 0.0 0.00 0.00 0.00 54 1011.1
20260506013045 15 319 0.0 0.0 0.00 0.00 0.00 53 1011.0
20260506011540 15 87 0.0 0.0 0.00 0.00 0.00 54 1011.0
20260506010039 15 46 0.0 0.0 0.00 0.00 0.00 53 1011.1
20260506004536 15 126 0.0 0.0 0.00 0.00 0.00 55 1011.2
20260506003035 14 96 0.0 0.0 0.00 0.00 0.00 56 1011.3
20260506001533 14 92 0.0 0.0 0.00 0.00 0.00 54 1011.4
20260506000032 14 25 0.0 0.0 0.00 0.00 0.00 57 1011.4
20260505234523 13 101 0.0 0.0 0.00 0.00 0.00 58 1011.5
20260505233018 13 88 0.0 0.0 0.00 0.00 0.00 58 1011.8
20260505231517 13 112 0.0 0.0 0.00 0.00 0.00 61 1012.0
20260505230012 13 97 0.0 0.0 0.00 0.00 0.00 60 1012.2
20260505224510 13 99 0.0 0.0 0.00 0.00 0.00 60 1012.3
20260505223006 13 86 0.0 0.0 0.00 0.00 0.00 58 1012.6
20260505221503 14 174 0.0 0.0 0.00 0.00 0.00 61 1012.8
20260505220059 13 112 0.0 0.0 0.00 0.00 0.00 64 1013.0
20260505214615 13 123 0.0 0.0 0.00 0.00 0.00 68 1013.3
20260505213057 12 229 0.0 0.0 0.00 0.00 0.00 69 1013.6
20260505211550 12 174 0.0 0.0 0.00 0.00 0.00 74 1013.8
20260505210048 12 189 0.0 0.0 0.00 0.00 0.00 74 1014.0
20260505204547 11 180 0.0 0.0 0.00 0.00 0.00 74 1014.0
20260505203042 10 199 0.0 0.0 0.00 0.00 0.00 80 1014.2
20260505201538 10 167 0.0 0.0 0.00 0.00 0.00 81 1014.3
20260505200043 10 180 0.0 0.0 0.00 0.00 0.00 80 1014.2
20260505194533 10 173 0.0 0.0 0.00 0.00 0.00 84 1014.4
20260505193035 9 132 0.0 0.0 0.00 0.00 0.00 83 1014.3
20260505191530 8 195 0.0 0.0 0.00 0.00 0.00 86 1014.5